TimeEST,TemperatureF,Dew PointF,Humidity,Sea Level PressureIn,VisibilityMPH,Wind Direction,Wind SpeedMPH,Gust SpeedMPH,PrecipitationIn,Events,Conditions,WindDirDegrees,DateUTC
12:53 AM,32.0,21.0,64,30.29,10.0,WNW,4.6,-,N/A,,Clear,290,2012-11-29 05:53:00
1:53 AM,30.9,19.9,64,30.30,10.0,West,3.5,-,N/A,,Clear,260,2012-11-29 06:53:00
2:53 AM,30.9,19.9,64,30.31,10.0,WNW,5.8,-,N/A,,Clear,290,2012-11-29 07:53:00
3:53 AM,32.0,19.9,61,30.31,10.0,WNW,5.8,-,N/A,,Clear,300,2012-11-29 08:53:00
4:53 AM,30.9,19.9,64,30.31,10.0,WNW,5.8,-,N/A,,Clear,290,2012-11-29 09:53:00
5:53 AM,30.9,19.9,64,30.32,10.0,WNW,4.6,-,N/A,,Clear,290,2012-11-29 10:53:00
6:53 AM,30.0,19.9,66,30.34,10.0,West,5.8,-,N/A,,Clear,280,2012-11-29 11:53:00
7:53 AM,30.9,21.9,69,30.35,8.0,Calm,Calm,-,N/A,,Clear,0,2012-11-29 12:53:00
8:53 AM,32.0,23.0,69,30.37,8.0,WSW,3.5,-,N/A,,Clear,240,2012-11-29 13:53:00
9:53 AM,36.0,24.1,62,30.39,7.0,West,8.1,-,N/A,,Clear,280,2012-11-29 14:53:00
10:53 AM,37.9,24.1,57,30.38,8.0,WNW,9.2,-,N/A,,Clear,290,2012-11-29 15:53:00
11:53 AM,42.1,24.1,49,30.36,9.0,WNW,12.7,19.6,N/A,,Clear,290,2012-11-29 16:53:00
12:53 PM,43.0,25.0,49,30.34,10.0,WNW,10.4,21.9,N/A,,Clear,300,2012-11-29 17:53:00
1:53 PM,43.0,24.1,47,30.31,9.0,West,13.8,-,N/A,,Clear,270,2012-11-29 18:53:00
2:53 PM,43.0,24.1,47,30.30,10.0,WNW,12.7,17.3,N/A,,Clear,290,2012-11-29 19:53:00
3:53 PM,43.0,23.0,45,30.31,9.0,West,9.2,-,N/A,,Clear,270,2012-11-29 20:53:00
4:53 PM,41.0,21.9,47,30.30,10.0,West,6.9,-,N/A,,Clear,280,2012-11-29 21:53:00
5:53 PM,39.0,21.9,50,30.31,10.0,West,3.5,-,N/A,,Clear,280,2012-11-29 22:53:00
6:53 PM,37.9,23.0,55,30.32,10.0,WSW,3.5,-,N/A,,Clear,250,2012-11-29 23:53:00
7:53 PM,36.0,23.0,59,30.33,10.0,Calm,Calm,-,N/A,,Clear,0,2012-11-30 00:53:00
8:53 PM,32.0,21.9,66,30.33,9.0,Calm,Calm,-,N/A,,Clear,0,2012-11-30 01:53:00
9:53 PM,32.0,21.9,66,30.33,9.0,Calm,Calm,-,N/A,,Clear,0,2012-11-30 02:53:00
10:53 PM,30.9,21.9,69,30.32,9.0,Calm,Calm,-,N/A,,Clear,0,2012-11-30 03:53:00
11:53 PM,28.0,21.9,78,30.33,9.0,Calm,Calm,-,N/A,,Clear,0,2012-11-30 04:53:00